Hourly Weather Erd

Today, 10 August, Monday

Time Temperature Precipitation Wind Pressure Humidity
00:00 +25°C° 0 mm 1 mps 751 mmHg 63%
01:00 +25°C° 0 mm 1 mps 751 mmHg 64%
02:00 +25°C° 0.1 mm 1 mps 751 mmHg 66%
03:00 +24°C° 0.1 mm 1 mps 751 mmHg 68%
04:00 +24°C° 0.1 mm 1 mps 751 mmHg 70%
05:00 +25°C° 0.1 mm 1 mps 751 mmHg 68%
06:00 +26°C° 0.1 mm 1 mps 751 mmHg 65%
07:00 +27°C° 0 mm 1 mps 752 mmHg 62%
08:00 +28°C° 0.1 mm 1 mps 752 mmHg 57%
09:00 +30°C° 0.1 mm 1 mps 752 mmHg 51%
10:00 +31°C° 0.1 mm 1 mps 752 mmHg 46%
11:00 +32°C° 0 mm 1 mps 751 mmHg 43%
12:00 +33°C° 0 mm 1 mps 751 mmHg 39%
13:00 +34°C° 0 mm 1 mps 751 mmHg 36%
14:00 +34°C° 0 mm 1 mps 751 mmHg 36%
15:00 +34°C° 0 mm 1 mps 751 mmHg 36%
16:00 +34°C° 0 mm 1 mps 751 mmHg 37%
17:00 +32°C° 0.1 mm 1 mps 751 mmHg 42%
18:00 +30°C° 0.1 mm 2 mps 751 mmHg 48%
19:00 +28°C° 0.1 mm 2 mps 751 mmHg 54%
20:00 +28°C° 0.3 mm 2 mps 751 mmHg 58%
21:00 +27°C° 0.3 mm 2 mps 751 mmHg 61%
22:00 +26°C° 0.3 mm 2 mps 751 mmHg 65%
23:00 +25°C° 0.4 mm 2 mps 751 mmHg 67%

Tomorrow, 11 August, Tuesday

Time Temperature Precipitation Wind Pressure Humidity
00:00 +25°C° 0.4 mm 2 mps 752 mmHg 69%
01:00 +24°C° 0.4 mm 1 mps 752 mmHg 71%
02:00 +24°C° 0.7 mm 1 mps 752 mmHg 72%
03:00 +23°C° 0.7 mm 1 mps 752 mmHg 74%
04:00 +23°C° 0.7 mm 1 mps 752 mmHg 76%
05:00 +24°C° 0.3 mm 1 mps 752 mmHg 73%
06:00 +25°C° 0.3 mm 1 mps 752 mmHg 70%
07:00 +25°C° 0.3 mm 1 mps 752 mmHg 68%
08:00 +27°C° 0.1 mm 1 mps 752 mmHg 62%
09:00 +28°C° 0.1 mm 1 mps 752 mmHg 56%
10:00 +30°C° 0.1 mm 2 mps 752 mmHg 50%
11:00 +31°C° 0 mm 1 mps 752 mmHg 47%
12:00 +32°C° 0 mm 1 mps 752 mmHg 44%
13:00 +31°C° 0 mm 0 mps 752 mmHg 41%
14:00 +33°C° 0 mm 1 mps 752 mmHg 41%
15:00 +33°C° 0 mm 1 mps 751 mmHg 42%
16:00 +32°C° 0 mm 1 mps 751 mmHg 42%
17:00 +31°C° 0.2 mm 1 mps 751 mmHg 48%
18:00 +29°C° 0.2 mm 2 mps 751 mmHg 55%
19:00 +27°C° 0.2 mm 2 mps 751 mmHg 61%
20:00 +26°C° 0.8 mm 2 mps 751 mmHg 65%
21:00 +25°C° 0.8 mm 1 mps 752 mmHg 70%
22:00 +25°C° 0.8 mm 1 mps 752 mmHg 74%
23:00 +24°C° 0.1 mm 1 mps 752 mmHg 74%

Day after tomorrow, 12 August, Wednesday

Time Temperature Precipitation Wind Pressure Humidity
00:00 +24°C° 0.1 mm 1 mps 752 mmHg 73%
01:00 +24°C° 0.1 mm 1 mps 752 mmHg 73%
02:00 +23°C° 0.1 mm 1 mps 752 mmHg 73%
03:00 +23°C° 0.1 mm 1 mps 752 mmHg 74%
04:00 +23°C° 0.1 mm 1 mps 752 mmHg 74%
05:00 +24°C° 0 mm 1 mps 752 mmHg 71%
06:00 +24°C° 0 mm 1 mps 752 mmHg 68%
07:00 +25°C° 0 mm 1 mps 753 mmHg 65%
08:00 +27°C° 0 mm 2 mps 753 mmHg 58%
09:00 +28°C° 0 mm 2 mps 753 mmHg 52%
10:00 +30°C° 0 mm 2 mps 753 mmHg 45%
11:00 +31°C° 0 mm 2 mps 753 mmHg 43%
12:00 +31°C° 0 mm 2 mps 753 mmHg 40%
13:00 +32°C° 0 mm 2 mps 752 mmHg 37%
14:00 +32°C° 0 mm 2 mps 752 mmHg 37%
15:00 +32°C° 0 mm 2 mps 752 mmHg 37%
16:00 +32°C° 0 mm 2 mps 752 mmHg 37%
17:00 +31°C° 0 mm 2 mps 752 mmHg 41%
18:00 +29°C° 0 mm 2 mps 752 mmHg 46%
19:00 +27°C° 0 mm 2 mps 752 mmHg 51%
20:00 +26°C° 0 mm 2 mps 752 mmHg 52%
21:00 +26°C° 0 mm 2 mps 753 mmHg 54%
22:00 +25°C° 0 mm 2 mps 753 mmHg 56%
23:00 +24°C° 0 mm 2 mps 753 mmHg 57%

13 August, Thursday

Time Temperature Precipitation Wind Pressure Humidity
00:00 +23°C° 0 mm 2 mps 753 mmHg 59%
01:00 +21°C° 0 mm 2 mps 753 mmHg 60%
02:00 +21°C° 0 mm 2 mps 753 mmHg 61%
03:00 +20°C° 0 mm 2 mps 753 mmHg 61%
04:00 +21°C° 0 mm 1 mps 752 mmHg 62%
05:00 +21°C° 0 mm 2 mps 753 mmHg 60%
06:00 +21°C° 0 mm 2 mps 753 mmHg 58%
07:00 +23°C° 0 mm 2 mps 753 mmHg 56%
08:00 +25°C° 0 mm 2 mps 753 mmHg 52%
09:00 +26°C° 0 mm 2 mps 753 mmHg 47%
10:00 +28°C° 0 mm 2 mps 753 mmHg 43%
11:00 +29°C° 0 mm 2 mps 752 mmHg 42%
12:00 +30°C° 0 mm 2 mps 752 mmHg 40%
13:00 +31°C° 0 mm 2 mps 752 mmHg 39%
14:00 +32°C° 0 mm 2 mps 751 mmHg 38%
15:00 +32°C° 0 mm 2 mps 751 mmHg 37%
16:00 +32°C° 0 mm 2 mps 751 mmHg 37%
17:00 +30°C° 0 mm 2 mps 750 mmHg 41%
18:00 +29°C° 0 mm 2 mps 750 mmHg 45%
19:00 +27°C° 0 mm 1 mps 750 mmHg 49%
20:00 +27°C° 0 mm 1 mps 750 mmHg 51%
21:00 +26°C° 0 mm 1 mps 751 mmHg 52%
22:00 +25°C° 0 mm 2 mps 751 mmHg 54%
23:00 +25°C° 0 mm 1 mps 751 mmHg 55%

14 August, Friday

Time Temperature Precipitation Wind Pressure Humidity
00:00 +24°C° 0 mm 1 mps 750 mmHg 57%
01:00 +24°C° 0 mm 1 mps 750 mmHg 59%
02:00 +24°C° 0 mm 1 mps 750 mmHg 60%
03:00 +24°C° 0 mm 1 mps 750 mmHg 61%
04:00 +23°C° 0 mm 1 mps 750 mmHg 63%
05:00 +24°C° 0 mm 1 mps 750 mmHg 62%
06:00 +24°C° 0 mm 1 mps 750 mmHg 62%
07:00 +24°C° 0 mm 2 mps 750 mmHg 62%
08:00 +25°C° 0 mm 2 mps 750 mmHg 59%
09:00 +26°C° 0 mm 2 mps 751 mmHg 56%
10:00 +27°C° 0 mm 2 mps 751 mmHg 53%
11:00 +28°C° 0 mm 3 mps 750 mmHg 51%
12:00 +28°C° 0 mm 3 mps 750 mmHg 48%
13:00 +29°C° 0 mm 3 mps 750 mmHg 45%
14:00 +30°C° 0 mm 3 mps 749 mmHg 43%
15:00 +30°C° 0 mm 3 mps 749 mmHg 42%
16:00 +31°C° 0 mm 3 mps 749 mmHg 40%
17:00 +29°C° 0 mm 3 mps 749 mmHg 43%
18:00 +28°C° 0 mm 3 mps 748 mmHg 46%
19:00 +26°C° 0 mm 2 mps 748 mmHg 49%
20:00 +25°C° 0.5 mm 2 mps 749 mmHg 53%
21:00 +24°C° 0.5 mm 2 mps 749 mmHg 58%
22:00 +23°C° 0.5 mm 1 mps 749 mmHg 62%
23:00 +23°C° 0.4 mm 1 mps 749 mmHg 64%

15 August, Saturday

Time Temperature Precipitation Wind Pressure Humidity
00:00 +23°C° 0.4 mm 1 mps 749 mmHg 66%
01:00 +22°C° 0.4 mm 1 mps 749 mmHg 68%
02:00 +22°C° 0.2 mm 1 mps 748 mmHg 71%
03:00 +21°C° 0.2 mm 2 mps 748 mmHg 73%
04:00 +20°C° 0.2 mm 2 mps 748 mmHg 76%
05:00 +21°C° 0.2 mm 2 mps 748 mmHg 74%
06:00 +23°C° 0.2 mm 2 mps 748 mmHg 72%
07:00 +24°C° 0.2 mm 2 mps 749 mmHg 70%
08:00 +26°C° 0 mm 2 mps 749 mmHg 66%
09:00 +27°C° 0 mm 3 mps 749 mmHg 62%
10:00 +28°C° 0 mm 3 mps 749 mmHg 58%
11:00 +28°C° 0.4 mm 4 mps 749 mmHg 59%
12:00 +28°C° 0.4 mm 4 mps 749 mmHg 60%
13:00 +28°C° 0.4 mm 5 mps 748 mmHg 62%
14:00 +28°C° 1.1 mm 5 mps 748 mmHg 65%
15:00 +27°C° 1.1 mm 6 mps 748 mmHg 68%
16:00 +26°C° 1.1 mm 6 mps 748 mmHg 71%
17:00 +25°C° 0.3 mm 5 mps 748 mmHg 74%
18:00 +23°C° 0.3 mm 5 mps 748 mmHg 77%
19:00 +22°C° 0.3 mm 4 mps 748 mmHg 80%
20:00 +22°C° 0 mm 4 mps 748 mmHg 82%
21:00 +22°C° 0 mm 3 mps 748 mmHg 84%
22:00 +21°C° 0 mm 3 mps 748 mmHg 85%
23:00 +21°C° 0 mm 2 mps 748 mmHg 86%
Show more